Eagle River, WI

10:42 PM CST on February 18, 2018 (GMT -0600)
Eagle River Union

Weather History for KEGV - August, 2014

Change the Weather History Date:

Monday, August 25, 2014

  Actual Average Record
Temperature  
Mean Temperature 74 °F -  
Max Temperature 83 °F 77 °F 91 °F (2013)
Min Temperature 64 °F 55 °F 33 °F (2008)
Cooling Degree Days 8    
Growing Degree Days 24 (Base 50)    
Moisture  
Dew Point 64 °F    
Average Humidity 78    
Maximum Humidity 100    
Minimum Humidity 45    
Precipitation  
Precipitation 0.43 in - - ()
Sea Level Pressure  
Sea Level Pressure 29.95 in    
Wind  
Wind Speed 7 mph (SW)    
Max Wind Speed 15 mph    
Max Gust Speed 22 mph    
Visibility 9 miles    
Events Rain    
Averages and records for this station are not official NWS values.
T = Trace of Precipitation, MM = Missing Value Source: NWS Daily Summary

Daily Weather History Graph

Daily Weather History Graph

Search for Another Location

Airport or City:

Trip Planner

Search our weather history database for the weather conditions in past years. The results will help you decide how hot, cold, wet, or windy it might be!

Date:

Astronomy

Aug. 25, 2014 Rise Set
Actual Time 6:09 AM CDT 7:48 PM CDT
Civil Twilight 5:37 AM CDT 8:19 PM CDT
Nautical Twilight 4:59 AM CDT 8:57 PM CDT
Astronomical Twilight 4:17 AM CDT 9:39 PM CDT
Moon 6:17 AM CDT (8/25) 7:33 PM CDT (8/25)
Length of Visible Light 14h 41m
Length of Day
13h 38m
New Moon, 0% of the Moon is Illuminated
Aug 25
New Moon
Sep 2
First Quarter
Sep 8
Full
Sep 15
Last Quarter
Sep 24
New

Hourly Weather History & Observations

Time (CDT) Temp. Heat Index Dew Point Humidity Pressure Visibility Wind Dir Wind Speed Gust Speed Precip Events Conditions
12:15 AM 68.0 °F - 67.6 °F 99% 29.98 in 2.0 mi SSE 8.1 mph - N/A Rain Light Rain
12:35 AM 67.6 °F - 67.6 °F 100% 29.98 in 2.0 mi SSE 5.8 mph - N/A   Light Drizzle
12:55 AM 67.6 °F - 67.6 °F 100% 29.98 in 2.0 mi SSE 6.9 mph - N/A   Light Drizzle
1:15 AM 67.6 °F - 67.6 °F 100% 29.97 in 1.8 mi SSE 8.1 mph - N/A   Light Drizzle
1:35 AM 68.0 °F - 68.0 °F 100% 29.97 in 1.8 mi South 8.1 mph - N/A   Light Drizzle
1:55 AM 68.0 °F - 68.0 °F 100% 29.96 in 1.5 mi SSE 4.6 mph - N/A   Overcast
2:15 AM 68.0 °F - 68.0 °F 100% 29.95 in 1.5 mi SSE 4.6 mph - N/A   Overcast
2:35 AM 68.2 °F - 68.2 °F 100% 29.95 in 1.8 mi SSE 4.6 mph - N/A Rain Light Rain
2:55 AM 68.5 °F - 68.5 °F 100% 29.97 in 2.0 mi South 6.9 mph - N/A Rain Light Rain
3:15 AM 67.3 °F - 63.1 °F 87% 29.99 in 4.0 mi SSW 4.6 mph 18.4 mph 0.19 in Rain Heavy Rain
3:35 AM 65.3 °F - 64.4 °F 97% 30.01 in 5.0 mi SSE 6.9 mph - 0.25 in Rain Rain
4:15 AM 65.3 °F - 64.9 °F 99% 29.99 in 5.0 mi SSE 10.4 mph - 0.05 in Rain Heavy Rain
4:35 AM 65.3 °F - 65.3 °F 100% 29.98 in 7.0 mi South 5.8 mph - 0.08 in Rain Light Rain
4:55 AM 65.5 °F - 65.3 °F 99% 29.96 in 4.0 mi North 3.5 mph - 0.16 in Rain Rain
5:15 AM 65.3 °F - 65.3 °F 100% 29.95 in 10.0 mi Calm Calm - N/A Rain Light Rain
5:35 AM 65.3 °F - 65.3 °F 100% 29.99 in 10.0 mi Calm Calm - N/A Rain Light Rain
5:55 AM 65.7 °F - 65.7 °F 100% 29.99 in 10.0 mi SSE 6.9 mph - 0.01 in   Overcast
6:15 AM 65.8 °F - 65.8 °F 100% 29.99 in 10.0 mi South 5.8 mph - N/A   Overcast
6:35 AM 65.8 °F - 65.3 °F 98% 29.97 in 10.0 mi SSE 4.6 mph - N/A Rain Light Rain
6:55 AM 65.5 °F - 64.9 °F 98% 29.94 in 10.0 mi Calm Calm - N/A   Clear
7:15 AM 65.3 °F - 64.8 °F 98% 29.93 in 10.0 mi Calm Calm - N/A   Clear
7:35 AM 64.9 °F - 64.9 °F 100% 29.94 in 10.0 mi Calm Calm - 0.01 in   Clear
7:55 AM 65.3 °F - 65.3 °F 100% 29.95 in 10.0 mi South 4.6 mph - 0.01 in   Clear
8:15 AM 65.7 °F - 65.3 °F 99% 29.95 in 10.0 mi South 5.8 mph - N/A   Clear
8:35 AM 66.2 °F - 65.7 °F 98% 29.94 in 10.0 mi South 3.5 mph - N/A   Clear
8:55 AM 66.9 °F - 66.2 °F 98% 29.95 in 10.0 mi SW 5.8 mph - N/A   Clear
9:35 AM 68.9 °F - 66.7 °F 93% 29.95 in 10.0 mi SSW 5.8 mph - N/A   Clear
9:55 AM 70.0 °F - 67.5 °F 92% 29.95 in 10.0 mi SW 4.6 mph - N/A   Clear
10:15 AM 70.9 °F - 67.6 °F 89% 29.96 in 10.0 mi SW 5.8 mph - N/A   Scattered Clouds
10:35 AM 71.8 °F - 67.3 °F 86% 29.96 in 10.0 mi SSW 8.1 mph - N/A   Mostly Cloudy
10:55 AM 73.0 °F - 66.6 °F 80% 29.96 in 10.0 mi SW 10.4 mph 16.1 mph N/A   Scattered Clouds
11:15 AM 73.8 °F - 66.7 °F 79% 29.95 in 10.0 mi WSW 9.2 mph - N/A   Clear
11:35 AM 75.2 °F - 66.4 °F 74% 29.95 in 10.0 mi SW 11.5 mph 17.3 mph N/A   Scattered Clouds
11:55 AM 75.0 °F - 66.0 °F 73% 29.95 in 10.0 mi SW 10.4 mph - N/A   Scattered Clouds
12:15 PM 76.6 °F - 66.9 °F 72% 29.95 in 10.0 mi SSW 6.9 mph - N/A   Clear
12:35 PM 77.2 °F - 66.4 °F 69% 29.95 in 10.0 mi SSW 9.2 mph - N/A   Scattered Clouds
12:55 PM 77.7 °F - 64.6 °F 64% 29.94 in 10.0 mi SW 9.2 mph 16.1 mph N/A   Scattered Clouds
1:15 PM 78.6 °F - 65.1 °F 63% 29.94 in 10.0 mi SSW 9.2 mph 17.3 mph N/A   Clear
1:35 PM 79.9 °F - 65.7 °F 62% 29.94 in 10.0 mi WSW 12.7 mph 18.4 mph N/A   Clear
1:55 PM 79.9 °F - 65.5 °F 61% 29.94 in 10.0 mi SW 11.5 mph 16.1 mph N/A   Scattered Clouds
2:15 PM 80.1 °F 81.8 °F 64.8 °F 59% 29.93 in 10.0 mi SW 10.4 mph 18.4 mph N/A   Scattered Clouds
2:35 PM 80.8 °F 82.5 °F 64.9 °F 58% 29.93 in 10.0 mi SW 11.5 mph - N/A   Clear
2:55 PM 81.0 °F 82.6 °F 64.6 °F 57% 29.92 in 10.0 mi SW 10.4 mph - N/A   Clear
3:15 PM 82.0 °F 83.8 °F 64.9 °F 56% 29.91 in 10.0 mi WSW 11.5 mph - N/A   Clear
3:35 PM 81.9 °F 83.5 °F 64.9 °F 56% 29.92 in 10.0 mi WSW 12.7 mph - N/A   Clear
3:55 PM 81.9 °F 83.7 °F 65.3 °F 57% 29.91 in 10.0 mi SW 10.4 mph 16.1 mph N/A   Scattered Clouds
4:15 PM 82.6 °F 84.3 °F 64.9 °F 55% 29.91 in 10.0 mi WSW 11.5 mph 18.4 mph N/A   Scattered Clouds
4:35 PM 83.1 °F 84.6 °F 64.4 °F 53% 29.92 in 10.0 mi WSW 11.5 mph 17.3 mph N/A   Clear
4:55 PM 82.9 °F 83.5 °F 61.3 °F 48% 29.92 in 10.0 mi West 15.0 mph 21.9 mph N/A   Clear
5:15 PM 82.4 °F 82.5 °F 59.4 °F 45% 29.93 in 10.0 mi WSW 13.8 mph 20.7 mph N/A   Clear
5:35 PM 81.5 °F 81.8 °F 59.5 °F 47% 29.93 in 10.0 mi SW 10.4 mph - N/A   Scattered Clouds
5:55 PM 80.8 °F 81.4 °F 60.1 °F 49% 29.93 in 10.0 mi SW 11.5 mph 16.1 mph N/A   Scattered Clouds
6:15 PM 79.9 °F - 59.7 °F 50% 29.93 in 10.0 mi SW 6.9 mph - N/A   Clear
6:35 PM 78.8 °F - 59.9 °F 52% 29.93 in 10.0 mi SW 8.1 mph - N/A   Clear
6:55 PM 76.8 °F - 59.7 °F 55% 29.93 in 10.0 mi SW 6.9 mph - N/A   Clear
7:15 PM 75.6 °F - 59.9 °F 58% 29.93 in 10.0 mi SW 5.8 mph - N/A   Clear
7:35 PM 75.0 °F - 59.9 °F 59% 29.93 in 10.0 mi SW 8.1 mph - N/A   Scattered Clouds
7:55 PM 73.0 °F - 60.3 °F 64% 29.94 in 10.0 mi SW 6.9 mph - N/A   Scattered Clouds
8:15 PM 71.2 °F - 61.2 °F 70% 29.94 in 10.0 mi SW 5.8 mph - N/A   Clear
8:35 PM 70.2 °F - 61.7 °F 74% 29.95 in 10.0 mi WSW 8.1 mph - N/A   Clear
8:55 PM 70.0 °F - 61.3 °F 74% 29.95 in 10.0 mi WSW 8.1 mph - N/A   Clear
9:15 PM 70.0 °F - 61.5 °F 74% 29.95 in 10.0 mi WSW 8.1 mph - N/A   Clear
9:35 PM 69.6 °F - 61.0 °F 74% 29.95 in 10.0 mi WSW 6.9 mph - N/A   Clear
9:55 PM 67.5 °F - 60.8 °F 79% 29.96 in 10.0 mi SW 4.6 mph - N/A   Clear
10:15 PM 67.1 °F - 60.6 °F 80% 29.96 in 10.0 mi WSW 3.5 mph - N/A   Clear
10:35 PM 66.2 °F - 60.3 °F 81% 29.98 in 10.0 mi West 9.2 mph - N/A   Clear
10:55 PM 66.7 °F - 55.9 °F 68% 29.98 in 10.0 mi WNW 8.1 mph - N/A   Clear
11:15 PM 66.6 °F - 55.4 °F 67% 29.99 in 10.0 mi West 9.2 mph - N/A   Clear
11:35 PM 65.3 °F - 55.4 °F 70% 29.99 in 10.0 mi West 8.1 mph - N/A   Clear
11:55 PM 64.4 °F - 55.4 °F 73% 29.99 in 10.0 mi West 4.6 mph - N/A   Clear